Location: Berlin
(52.5170°N, 13.3889°E)
Time: 23:37:37
(UTC+02:00)

LES 1 - Pass Details

Date: 22 June 2025
Orbit: 2779 x 2808 km, 32.1° (Epoch: 12 July)

Event Time Altitude Azimuth Distance (km) Brightness Sun altitude
Rises 23:54:00 0° 239° (WSW) 6,569 12.1 -12.3°
Reaches altitude 10° 23:58:43 10° 231° (SW) 5,550 11.7 -12.5°
Maximum altitude 00:12:05 34° 173° (S) 3,902 10.5 -13.1°
Drops below altitude 10° 00:25:29 10° 115° (ESE) 5,563 11.6 -13.5°
Sets 00:30:12 0° 107° (ESE) 6,586 12.0 -13.6°
